User: anonymous   Login
Location: CNYAC Observatory
(43.2150°N, 74.9500°W)
Time: 18:48:38
(UTC-04:00)
Language:

Cosmos 1300 Rocket - Orbit

View from above orbital plane
View from above orbital plane
View from above satellite
View from above satellite

Ground track
Ground track

The orbit data is extracted from the following two-line orbital elements,

1 12786U 81082B   17178.84937921 +.00000082 +00000-0 +68923-5 0  9993
2 12786 082.4891 317.6509 0016641 215.7146 144.2958 14.84686001915290
Epoch (UTC): 27 June 2017 20:23:06
Eccentricity: 0.0016641
inclination: 82.4891°
perigee height: 603 km
apogee height: 626 km
right ascension of ascending node: 317.6509°
argument of perigee: 215.7146°
revolutions per day: 14.84686001
mean anomaly at epoch: 144.2958°
orbit number at epoch: 91529

The dashed part of the orbit path shows where the satellite is in the earth's shadow,  

DLR